Date,TemperatureHighF,TemperatureAvgF,TemperatureLowF,DewpointHighF,DewpointAvgF,DewpointLowF,HumidityHigh,HumidityAvg,HumidityLow,PressureMaxIn,PressureMinIn,WindSpeedMaxMPH,WindSpeedAvgMPH,GustSpeedMaxMPH,PrecipitationSumIn
2013-1-1,38.7,32.8,24.1,38.5,29.2,18.8,100,86,73,29.53,29.29,10,5,13,0.00
2013-1-2,49.5,29.3,17.6,25.2,19.7,13.6,90,68,38,29.56,29.44,9,2,13,0.00
2013-1-3,54.4,32.8,21.6,27.9,20.0,15.4,90,62,28,29.71,29.53,9,2,12,0.00
2013-1-4,55.9,33.4,17.6,26.4,17.6,11.8,87,55,26,29.71,29.56,10,3,14,0.00
2013-1-5,57.2,40.4,28.2,29.4,24.2,-99.9,70,53,32,29.56,29.41,11,4,16,0.00
2013-1-6,64.5,37.3,24.1,26.1,18.1,8.6,78,48,15,29.68,29.50,9,3,12,0.00
2013-1-7,58.7,36.1,18.9,26.6,18.5,10.9,76,50,27,29.59,29.35,12,3,19,0.00
2013-1-8,61.1,43.2,30.2,44.7,30.5,18.8,93,62,34,29.44,29.29,10,2,16,0.21
2013-1-9,53.6,50.0,46.6,48.6,43.8,35.3,99,81,50,29.56,29.38,9,4,13,0.12
2013-1-10,58.5,52.2,49.1,56.3,49.7,41.5,100,92,68,29.38,29.06,9,5,15,0.21
2013-1-11,74.9,57.4,44.8,46.7,42.5,36.8,100,63,28,29.12,28.94,15,7,25,0.00
2013-1-12,61.2,40.9,27.0,47.4,25.6,18.3,83,57,26,29.32,29.06,15,6,24,0.37
2013-1-13,42.4,26.9,18.7,19.4,12.5,8.7,71,52,32,29.62,29.26,0,0,0,0.00
2013-1-14,46.1,28.0,17.2,15.7,11.8,8.0,67,50,29,29.74,29.56,10,2,13,0.00
2013-1-15,37.9,27.8,20.4,19.1,13.0,7.9,76,54,33,29.56,29.44,9,4,13,0.00
2013-1-16,58.2,32.3,15.5,18.1,11.9,6.8,71,45,17,29.47,29.35,9,2,13,0.00
2013-1-17,65.1,40.4,24.6,27.8,21.2,13.6,77,48,23,29.74,29.44,12,4,20,0.00
2013-1-18,64.8,43.2,25.0,28.0,23.8,16.7,75,49,23,29.74,29.44,13,5,24,0.00
2013-1-19,74.3,51.3,35.8,32.1,27.9,22.3,63,43,18,29.44,29.32,11,4,20,0.00
2013-1-20,73.0,46.7,30.6,38.4,26.0,12.2,71,47,23,29.53,29.35,13,4,20,0.00
2013-1-21,51.9,33.6,24.4,15.7,11.1,5.5,50,38,19,29.68,29.53,10,4,17,0.00
2013-1-22,64.6,37.6,20.7,26.7,17.5,10.0,66,45,23,29.56,29.41,10,2,19,0.00
2013-1-23,68.6,44.2,25.7,38.1,28.1,17.2,71,54,32,29.50,29.35,7,2,11,0.00
2013-1-24,47.3,40.9,36.3,36.8,19.6,16.0,67,42,35,29.53,29.35,10,6,15,0.00
2013-1-25,59.0,40.6,31.0,28.6,21.9,17.5,63,48,29,29.50,29.35,8,3,11,0.00
2013-1-26,57.1,42.9,27.7,35.6,26.5,20.3,77,53,34,29.50,29.32,10,4,15,0.00
2013-1-27,62.1,54.4,46.4,57.4,49.7,29.2,100,85,51,29.35,29.15,17,7,27,0.00
2013-1-28,76.3,68.5,57.3,61.7,58.7,53.8,97,72,46,29.21,29.03,16,9,28,0.00
2013-1-29,72.4,59.4,42.1,60.1,53.1,36.3,100,81,48,29.03,28.73,19,8,31,0.79
2013-1-30,45.7,37.5,25.8,36.5,22.9,16.0,80,56,37,29.32,28.88,22,9,30,0.00
2013-1-31,56.7,34.5,23.0,24.9,18.1,7.2,81,53,26,29.71,29.26,16,5,27,0.00
2013-2-1,54.7,31.6,18.1,16.3,9.3,1.8,56,39,20,29.71,29.41,13,4,17,0.00
2013-2-2,67.4,42.4,24.4,28.6,21.5,15.7,72,46,17,29.53,29.41,11,3,17,0.00
2013-2-3,65.8,48.4,33.8,24.8,20.8,14.8,54,36,15,29.56,29.21,10,4,15,0.00
2013-2-4,75.7,56.8,38.9,33.9,25.6,14.4,53,32,10,29.23,29.09,11,5,14,0.00
2013-2-5,79.7,48.9,29.7,37.9,25.1,11.9,77,46,10,29.32,29.18,8,1,10,0.00
2013-2-6,67.5,51.1,33.7,46.0,36.0,24.3,88,58,35,29.32,29.15,14,5,22,0.00
2013-2-7,63.4,53.2,43.5,56.9,46.2,32.9,93,77,60,29.41,29.09,13,6,20,0.04
2013-2-8,62.7,42.4,34.6,33.0,28.7,22.8,84,61,29,29.59,29.41,9,4,13,0.00
2013-2-9,44.7,40.7,34.0,44.7,34.7,25.7,100,80,59,29.41,29.00,15,8,23,0.13
2013-2-10,68.5,53.9,38.9,53.2,30.6,10.3,100,50,12,29.32,28.88,17,8,25,0.16
2013-2-11,67.0,43.4,30.1,25.7,19.6,11.6,64,41,15,29.50,29.32,9,3,13,0.00
2013-2-12,41.7,37.9,32.5,36.5,28.8,20.0,98,71,50,29.38,29.21,9,4,13,0.29
2013-2-13,64.2,43.2,35.2,36.0,30.0,21.4,99,66,24,29.32,29.21,10,4,13,0.00
2013-2-14,70.1,48.7,34.0,31.0,24.8,19.3,59,41,22,29.47,29.23,15,5,22,0.00
2013-2-15,54.0,38.8,28.0,27.9,14.2,0.9,61,39,13,29.65,29.44,12,6,19,0.00
2013-2-16,55.3,37.7,26.1,22.5,12.9,6.2,58,38,15,29.65,29.32,14,4,20,0.00
2013-2-17,74.8,53.4,33.6,29.1,21.9,11.2,60,33,11,29.32,29.03,16,7,30,0.00
2013-2-18,62.5,55.6,39.3,46.9,32.0,17.9,65,42,25,29.41,28.91,22,12,32,0.00
2013-2-19,65.8,41.4,24.5,23.9,17.5,10.1,68,41,15,29.59,29.41,9,2,12,0.00
2013-2-20,39.2,35.8,33.1,34.0,27.5,17.2,99,76,41,29.53,29.26,12,5,19,0.34
2013-2-21,33.1,33.0,32.7,32.2,30.3,29.2,97,90,86,29.26,29.03,12,4,17,0.28
2013-2-22,31.1,28.6,26.2,16.0,15.1,13.8,56,53,49,29.41,29.38,5,3,6,0.00
2013-2-23,60.7,34.8,19.7,23.9,16.9,12.2,76,50,24,29.38,29.21,6,2,10,0.00
2013-2-24,66.8,44.9,25.3,33.8,26.4,16.6,79,50,24,29.23,29.03,19,6,24,0.00
2013-2-25,46.6,40.1,33.8,39.6,33.9,27.7,100,81,51,29.09,28.76,18,8,27,0.95
2013-2-26,46.2,38.2,32.4,33.9,28.7,23.1,100,71,48,29.18,28.76,20,10,30,0.20
2013-2-27,52.5,38.5,30.9,27.5,23.7,19.1,81,58,30,29.41,29.18,21,8,29,0.00
2013-2-28,56.5,38.9,28.8,27.0,23.6,20.7,81,56,32,29.47,29.41,14,7,20,0.00
2013-3-1,44.1,37.3,32.0,21.4,18.1,11.1,55,46,37,29.56,29.44,17,8,23,0.00
2013-3-2,58.6,37.5,24.4,18.9,14.1,-99.9,64,40,17,29.65,29.44,11,5,16,0.00
2013-3-3,70.3,47.9,28.4,27.9,21.7,14.2,58,37,17,29.44,28.94,13,6,21,0.00
2013-3-4,87.6,60.5,46.2,37.3,31.4,19.5,60,37,11,29.23,28.85,20,7,31,0.00
2013-3-5,56.4,43.2,35.4,34.9,19.3,11.5,80,41,17,29.62,29.23,22,11,30,0.13
2013-3-6,60.4,40.8,25.9,20.5,15.7,8.3,55,38,14,29.71,29.47,9,3,12,0.00
2013-3-7,74.7,52.2,33.1,25.0,19.7,11.4,57,32,11,29.50,29.32,14,5,23,0.00
2013-3-8,58.8,53.2,46.4,38.6,30.8,23.2,56,42,35,29.44,29.23,15,7,23,0.00
2013-3-9,64.2,58.7,53.8,58.5,46.4,30.5,100,67,35,29.26,28.94,16,7,28,0.37
2013-3-10,56.2,43.0,33.8,54.9,33.9,18.9,100,71,53,29.29,28.91,18,9,26,0.00
2013-3-11,63.4,40.4,27.7,22.0,15.9,1.9,73,42,11,29.32,29.23,15,6,20,0.00
2013-3-12,67.8,47.6,32.2,32.9,22.3,12.0,59,40,12,29.59,29.29,13,4,17,0.00
2013-3-13,67.5,45.1,27.1,24.5,18.2,9.6,74,38,12,29.74,29.56,9,2,13,0.00
2013-3-14,84.7,58.3,37.9,35.6,26.0,17.3,51,32,11,29.56,29.35,13,4,23,0.00
2013-3-15,87.7,67.9,50.8,40.9,36.1,23.4,66,36,11,29.38,29.06,15,6,23,0.00
2013-3-16,81.1,64.2,50.2,44.8,38.1,32.9,52,39,25,29.12,29.00,14,6,22,0.00
2013-3-17,50.2,45.1,41.5,41.9,38.2,32.7,93,78,52,29.12,28.97,15,6,20,0.00
2013-3-18,70.9,50.4,38.7,43.1,30.5,9.4,96,56,12,29.32,28.97,13,5,19,0.00
2013-3-19,64.9,48.7,34.4,26.4,22.8,17.8,61,39,21,29.53,29.29,13,4,18,0.00
2013-3-20,66.3,45.9,31.8,30.4,19.2,7.3,76,39,13,29.65,29.32,13,4,17,0.00
2013-3-21,45.5,40.5,35.8,35.9,24.3,14.0,78,53,33,29.32,29.00,17,8,28,0.04
2013-3-22,49.4,42.9,37.4,37.8,34.7,31.5,93,74,53,29.18,29.03,10,5,15,0.21
2013-3-23,44.7,42.1,39.2,42.4,38.9,34.2,99,89,71,29.18,29.00,13,5,18,0.00
2013-3-24,47.6,36.9,29.7,37.8,22.1,10.8,96,58,28,29.44,29.06,22,12,35,0.05
2013-3-25,44.4,34.2,25.9,19.2,14.4,9.4,66,43,29,29.65,29.44,18,8,27,0.00
2013-3-26,64.3,38.9,21.6,20.5,14.6,6.6,68,40,13,29.71,29.53,10,3,13,0.00
2013-3-27,74.2,51.6,32.4,25.1,19.7,-99.9,56,32,13,29.56,29.35,16,6,26,0.00
2013-3-28,79.9,60.6,44.2,44.2,34.7,19.8,52,39,25,29.44,29.32,12,5,19,0.00
2013-3-29,76.8,62.1,50.7,57.0,50.1,42.6,92,67,41,29.41,29.32,12,4,17,0.04
2013-3-30,86.0,66.3,55.2,58.7,51.4,47.6,100,62,29,29.35,29.12,14,5,20,0.33
2013-3-31,82.3,63.5,50.6,57.8,41.4,30.8,98,50,19,29.29,29.15,22,5,33,0.00
2013-4-1,67.1,51.5,41.9,42.4,34.7,26.6,82,54,33,29.41,29.23,14,6,22,0.00
2013-4-2,45.7,41.7,39.4,40.5,34.7,23.5,98,79,43,29.50,29.38,14,8,20,0.74
2013-4-3,43.9,41.2,39.2,39.7,33.7,26.5,98,75,51,29.50,29.38,11,5,17,0.67
2013-4-4,70.1,50.1,39.4,39.5,33.5,25.3,97,60,22,29.44,29.35,10,4,15,0.25
2013-4-5,75.8,55.9,35.8,40.4,34.6,30.1,88,50,21,29.47,29.23,10,4,15,0.00
2013-4-6,81.5,66.4,56.8,45.0,41.0,37.9,54,41,23,29.23,29.06,17,7,29,0.00
2013-4-7,68.2,62.0,50.9,56.5,51.6,44.4,89,69,55,29.18,29.00,13,5,23,0.00
2013-4-8,78.8,68.1,63.1,60.7,55.2,-99.9,91,65,43,29.03,28.91,14,7,27,0.00
2013-4-9,79.5,71.4,46.7,59.4,54.4,35.4,70,56,42,29.12,28.91,19,8,27,0.00
2013-4-10,45.7,39.4,36.7,39.0,33.3,27.3,90,79,67,29.23,29.06,18,10,26,0.00
2013-4-11,63.2,45.0,33.8,27.3,24.0,20.9,68,47,24,29.21,29.06,14,6,20,0.00
2013-4-12,73.9,50.6,35.1,30.7,26.4,-99.9,76,44,16,29.29,29.09,13,3,20,0.00
2013-4-13,81.3,61.2,47.7,45.1,37.7,29.1,81,45,20,29.32,29.00,13,5,22,0.00
2013-4-14,85.1,69.4,55.8,52.2,42.7,37.6,67,40,24,29.00,28.79,18,7,32,0.00
2013-4-15,84.1,65.6,55.0,49.2,39.2,29.8,57,39,29,29.15,28.97,13,7,21,0.00
2013-4-16,63.9,55.3,51.6,47.3,43.1,37.3,79,64,50,29.23,29.09,9,6,15,0.00
2013-4-17,84.3,67.4,52.0,70.3,54.0,-99.9,100,67,41,29.21,28.85,21,6,30,0.00
2013-4-18,66.0,47.0,41.5,66.0,34.7,19.0,100,65,39,29.35,28.79,18,11,30,0.00
2013-4-19,69.7,48.9,34.2,27.8,20.5,-99.9,58,37,12,29.44,29.29,14,6,26,0.00
2013-4-20,79.3,57.7,38.7,36.9,27.5,15.8,72,39,10,29.41,29.29,13,4,22,0.00
2013-4-21,78.5,62.2,51.6,41.5,35.7,31.0,67,40,21,29.47,29.32,15,6,26,0.00
2013-4-22,83.8,64.0,46.0,46.3,40.7,35.4,72,45,25,29.38,29.12,14,5,24,0.00
2013-4-23,66.7,46.2,37.8,53.3,39.5,29.9,92,79,44,29.47,29.06,14,8,20,0.00
2013-4-24,71.2,48.8,34.3,30.3,24.2,13.2,77,44,12,29.56,29.44,14,5,17,0.00
2013-4-25,77.0,55.9,34.9,34.4,26.4,-99.9,74,38,11,29.62,29.41,10,3,15,0.00
2013-4-26,61.6,57.0,54.0,53.5,43.2,32.9,97,64,34,29.44,29.32,14,6,22,0.00
2013-4-27,59.7,56.1,53.6,54.9,50.3,46.6,100,82,62,29.35,29.23,15,5,20,0.00
2013-4-28,89.5,66.4,47.8,53.3,48.7,41.6,94,58,19,29.32,29.12,9,3,15,0.00
2013-4-29,92.3,74.2,58.7,58.7,49.9,37.3,90,49,18,29.12,29.03,14,6,24,3.69
2013-4-30,92.3,74.8,60.3,54.7,47.8,36.7,75,43,14,29.09,29.03,14,6,22,0.00
2013-5-1,90.2,73.6,61.6,60.0,54.4,43.6,82,54,28,29.32,29.09,15,6,21,0.00
2013-5-2,62.9,45.2,38.1,42.9,35.8,32.1,89,70,48,29.62,29.32,18,11,27,0.00
2013-5-3,65.2,49.8,35.6,34.1,24.5,11.7,88,45,13,29.59,29.23,21,9,33,0.00
2013-5-4,51.4,45.4,40.8,42.8,36.0,24.5,87,70,42,29.29,29.15,15,6,22,0.00
2013-5-5,62.0,52.5,44.8,46.0,43.3,40.8,96,73,49,29.41,29.29,10,1,13,0.00
2013-5-6,81.1,58.6,46.2,50.4,46.4,41.4,99,69,31,29.38,29.26,8,3,11,0.00
2013-5-7,87.1,65.3,47.7,54.2,44.5,36.7,92,55,18,29.35,29.23,9,2,13,0.00
2013-5-8,90.8,71.7,57.5,59.0,47.4,37.8,79,45,19,29.26,29.15,14,4,21,0.00
2013-5-9,75.7,65.7,58.3,65.0,59.9,53.0,97,82,50,29.26,29.12,24,4,31,0.00
2013-5-10,79.5,67.0,57.0,64.2,53.8,44.3,99,67,31,29.32,29.18,12,4,16,0.00
2013-5-11,80.8,65.2,50.0,53.6,42.7,22.2,90,51,12,29.47,29.32,14,4,24,0.00
2013-5-12,79.2,60.7,41.2,40.8,35.1,30.7,84,44,20,29.53,29.35,11,3,15,0.00
2013-5-13,94.5,72.4,52.9,50.1,42.3,38.1,61,38,17,29.38,29.29,11,4,17,0.00
2013-5-14,94.3,77.2,59.5,51.1,44.2,37.2,55,33,17,29.29,29.18,13,6,23,0.00
2013-5-15,75.8,70.2,62.9,67.2,59.0,44.8,97,69,42,29.23,29.06,18,6,24,0.00
2013-5-16,83.7,69.4,62.2,63.9,59.8,53.5,96,75,38,29.15,29.06,7,2,10,0.00
2013-5-17,85.1,70.9,58.9,67.6,62.6,56.4,98,77,50,29.18,29.09,8,3,11,0.00
2013-5-18,95.9,79.5,68.2,71.1,67.3,62.9,98,70,34,29.15,29.00,10,5,20,0.00
2013-5-19,85.0,75.3,66.4,68.2,62.8,53.1,91,67,45,29.15,28.85,26,6,40,0.00
2013-5-20,88.2,76.0,71.2,68.9,65.1,54.6,86,69,47,29.03,28.88,12,6,20,0.00
2013-5-21,71.9,63.1,57.4,60.2,56.4,52.8,96,79,59,29.18,28.94,17,4,28,0.00
2013-5-22,88.7,68.7,53.9,57.8,51.2,43.9,100,61,22,29.21,29.06,10,3,13,0.00
2013-5-23,64.8,62.3,58.8,61.9,56.6,52.0,93,82,66,29.38,29.18,15,3,20,0.00
2013-5-24,85.0,70.4,58.6,60.3,58.0,56.3,94,68,41,29.44,29.35,11,6,17,0.00
2013-5-25,91.2,75.4,63.3,64.1,58.3,51.8,79,58,34,29.44,29.26,12,5,19,0.00
2013-5-26,91.4,77.4,67.3,65.3,61.5,56.3,88,61,34,29.32,29.18,13,6,22,0.00
2013-5-27,86.3,77.8,70.5,67.0,62.1,58.8,87,60,41,29.21,29.00,16,8,27,0.00
2013-5-28,85.2,78.2,72.4,64.0,60.4,57.6,72,55,41,29.09,28.97,15,8,29,0.00
2013-5-29,84.0,74.5,67.1,68.7,61.6,52.6,94,65,47,29.09,28.91,18,7,26,0.00
2013-5-30,85.1,74.7,65.3,70.3,65.3,56.6,96,74,49,29.03,28.91,18,7,29,0.00
2013-5-31,94.2,81.7,73.4,70.7,66.4,58.1,89,61,38,29.03,28.88,18,8,31,0.22
2013-6-1,88.8,73.8,64.9,67.7,55.7,44.3,97,60,22,29.26,28.91,13,5,22,0.25
2013-6-2,82.8,67.8,58.0,52.7,47.4,-99.9,80,51,29,29.32,29.23,10,5,15,0.00
2013-6-3,91.3,70.5,52.2,59.2,53.7,47.3,91,60,28,29.29,29.09,9,4,14,0.00
2013-6-4,89.5,75.4,66.0,64.8,61.3,57.0,96,64,39,29.23,29.03,25,5,36,0.41
2013-6-5,93.2,76.0,65.8,65.9,61.0,54.9,94,64,28,29.26,29.09,22,5,28,0.91
2013-6-6,89.3,73.4,62.2,61.9,53.1,41.9,86,54,20,29.23,29.15,10,5,16,0.00
2013-6-7,92.3,72.6,57.6,56.5,49.0,41.8,83,49,18,29.23,29.18,9,3,14,0.00
2013-6-8,89.6,73.4,59.5,59.0,53.3,47.7,79,53,28,29.21,29.06,10,3,19,0.00
2013-6-9,99.2,79.8,65.6,58.9,51.8,-99.9,76,43,13,29.18,29.03,12,4,18,0.00
2013-6-10,101.6,83.3,68.9,64.0,58.2,51.6,73,46,20,29.18,29.12,10,4,18,0.00
2013-6-11,100.2,84.8,71.6,65.9,60.8,56.2,70,48,26,29.23,29.12,11,6,23,0.00
2013-6-12,98.1,85.1,74.6,67.2,62.4,56.1,77,50,27,29.23,29.12,13,6,23,0.00
2013-6-13,105.2,87.0,72.7,68.0,62.4,57.3,79,47,21,29.29,29.18,6,3,10,0.00
2013-6-14,103.6,86.4,70.3,70.0,64.6,58.9,82,53,25,29.26,29.15,9,3,13,0.00
2013-6-15,89.3,79.0,73.1,71.4,67.6,60.9,81,69,41,29.26,29.18,14,4,28,0.09
2013-6-16,99.0,79.4,70.4,72.1,64.3,-99.9,93,64,31,29.26,29.15,16,3,24,0.00
2013-6-17,87.3,74.6,66.9,67.1,62.3,55.9,94,68,37,29.26,29.12,15,4,24,0.66
2013-6-18,99.8,79.8,66.2,66.1,60.0,47.1,93,58,19,29.29,29.21,8,3,11,0.00
2013-6-19,92.8,78.6,64.2,66.2,60.3,55.8,89,57,31,29.29,29.21,12,4,17,0.00
2013-6-20,97.8,81.6,71.1,68.5,64.6,59.3,80,59,29,29.29,29.18,10,5,17,0.00
2013-6-21,99.9,85.8,75.4,68.5,62.4,55.6,77,49,26,29.29,29.21,12,5,26,0.00
2013-6-22,99.6,85.1,74.3,66.0,59.1,-99.9,71,46,18,29.26,29.12,12,5,20,0.00
2013-6-23,100.0,85.5,74.8,67.7,61.4,54.6,77,48,25,29.21,29.12,13,6,25,0.00
2013-6-24,99.4,84.7,73.4,67.1,60.9,52.1,79,49,23,29.26,29.15,13,6,24,0.00
2013-6-25,95.9,84.6,76.3,66.2,62.7,58.5,69,50,30,29.21,29.06,15,7,26,0.00
2013-6-26,102.0,87.4,76.3,69.8,63.4,60.1,66,47,27,29.18,29.06,12,5,18,0.00
2013-6-27,107.0,89.4,74.1,70.2,64.2,51.0,83,48,24,29.23,29.12,16,4,22,0.00
2013-6-28,106.6,88.6,75.7,62.9,54.2,40.8,61,35,11,29.23,29.09,12,5,15,0.00
2013-6-29,100.9,91.4,76.5,40.8,34.4,25.4,28,15,7,29.15,29.09,14,6,23,0.00
2013-6-30,92.2,77.7,65.7,50.6,43.3,-99.9,55,31,18,29.23,29.15,15,3,23,0.00
2013-7-1,93.3,76.8,62.6,53.5,42.7,19.3,66,34,9,29.35,29.23,13,5,19,0.00
2013-7-2,96.3,76.5,61.0,50.5,40.6,17.7,65,34,6,29.35,29.29,12,3,15,0.00
2013-7-3,96.6,74.6,56.1,53.0,43.1,25.1,73,40,8,29.35,29.23,8,2,13,0.00
2013-7-4,100.0,77.1,59.9,55.5,48.4,-99.9,70,41,16,29.29,29.21,10,3,18,0.00
2013-7-5,96.2,79.7,62.8,57.6,51.3,41.7,72,42,16,29.26,29.15,10,3,16,0.00
2013-7-6,95.3,80.2,69.4,58.2,54.1,50.5,61,43,25,29.23,29.18,12,4,18,0.00
2013-7-7,103.8,85.3,72.1,59.8,55.1,46.8,63,40,15,29.29,29.21,10,4,15,0.00
2013-7-8,105.6,85.5,70.9,65.7,59.5,51.3,70,45,17,29.32,29.26,9,3,15,0.00
2013-7-9,104.3,88.3,74.3,65.1,59.5,50.6,70,42,18,29.32,29.21,10,5,20,0.00
2013-7-10,106.8,89.4,76.4,64.4,54.7,-99.9,58,34,14,29.26,29.18,10,4,14,0.00
2013-7-11,107.4,85.3,74.5,73.6,64.2,-99.9,82,54,18,29.26,29.15,10,3,17,0.17
2013-7-12,105.8,87.7,72.7,72.5,63.4,51.3,83,51,17,29.29,29.21,11,4,17,0.00
2013-7-16,82.3,79.0,76.7,65.6,64.1,62.8,67,61,54,29.56,29.47,4,2,6,0.00
2013-7-17,102.8,70.8,71.8,69.5,29.8,-99.9,87,37,18,29.59,29.41,11,-466,12,0.00
2013-7-18,103.7,85.0,71.6,70.1,61.1,-99.9,84,51,17,29.47,29.29,8,-45,10,0.00
2013-7-19,104.5,70.1,72.7,66.2,24.0,-99.9,76,31,16,29.32,29.18,10,-344,13,0.00
2013-7-20,103.7,65.8,72.7,66.4,17.3,-99.9,78,30,17,29.26,29.12,0,-999,0,0.00
2013-7-21,99.9,81.7,72.3,73.5,66.2,60.3,91,63,29,29.26,29.12,0,-999,0,0.00
2013-7-22,102.6,87.5,76.1,66.5,63.5,57.9,70,47,26,29.23,29.09,0,-999,0,0.00
2013-7-23,104.8,90.4,71.7,66.5,62.0,54.5,80,42,19,29.26,29.09,0,-999,0,0.00
2013-7-24,99.5,81.9,68.7,68.6,62.7,54.9,93,57,23,29.32,29.15,0,-999,0,0.00
2013-7-25,91.5,80.4,70.0,70.2,64.7,59.5,88,62,35,29.41,29.29,0,-999,0,0.00
2013-7-26,91.3,76.8,69.6,72.4,66.1,-99.9,97,72,39,29.41,29.23,0,-999,0,0.00
2013-7-27,97.0,77.9,66.0,68.7,59.1,45.8,96,61,19,29.35,29.23,0,-999,0,0.00
2013-7-28,94.9,78.2,67.3,61.4,58.5,55.8,78,54,30,29.32,29.23,0,-999,0,0.00
2013-7-29,95.3,81.6,71.3,69.7,64.1,59.8,78,57,33,29.29,29.18,0,-999,0,0.00
2013-7-30,97.8,80.4,70.9,71.8,65.1,-99.9,91,65,32,29.32,29.21,0,-999,0,0.00
2013-7-31,100.8,85.7,75.2,73.4,65.8,56.3,89,56,24,29.35,29.26,0,-999,0,0.00
2013-8-1,102.8,83.4,70.7,67.5,56.9,-99.9,82,48,16,29.38,29.21,0,-999,0,0.00
2013-8-2,102.3,86.2,74.7,70.9,65.7,61.6,76,53,28,29.23,29.09,0,-999,0,0.00
2013-8-3,91.0,83.5,77.2,69.6,63.6,58.6,75,52,42,29.35,29.18,0,-999,0,0.00
2013-8-6,-200.0,0.0,200.0,-99.9,-99.9,-99.9,0,0,100,29.09,29.06,0,-999,0,0.00
2013-8-7,-200.0,0.0,200.0,-99.9,-99.9,-99.9,0,0,100,29.15,29.09,0,-999,0,0.00
2013-8-8,-200.0,0.0,200.0,-99.9,-99.9,-99.9,0,0,100,29.21,29.09,0,-999,0,0.00
2013-8-9,-200.0,0.0,200.0,-99.9,-99.9,-99.9,0,0,100,29.32,29.15,0,-999,0,0.00
2013-8-10,-200.0,0.0,200.0,-99.9,-99.9,-99.9,0,0,100,29.38,29.29,0,-999,0,0.00
2013-8-11,-200.0,0.0,200.0,-99.9,-99.9,-99.9,0,0,100,29.35,29.26,0,-999,0,0.00
2013-8-12,-200.0,0.0,200.0,-99.9,-99.9,-99.9,0,0,100,29.32,29.21,0,-999,0,0.00
2013-8-13,-200.0,0.0,200.0,-99.9,-99.9,-99.9,0,0,100,29.32,29.21,0,-999,0,0.00
2013-8-14,-200.0,0.0,200.0,-99.9,-99.9,-99.9,0,0,100,29.44,29.29,0,-999,0,0.00
2013-8-15,-200.0,0.0,200.0,-99.9,-99.9,-99.9,0,0,100,29.47,29.23,0,-999,0,0.00
2013-8-16,-200.0,0.0,200.0,-99.9,-99.9,-99.9,0,0,100,29.35,29.23,0,-999,0,0.00
2013-8-17,-200.0,0.0,200.0,-99.9,-99.9,-99.9,0,0,100,29.38,29.29,0,-999,0,0.00
2013-8-18,-200.0,0.0,200.0,-99.9,-99.9,-99.9,0,0,100,29.38,29.26,0,-999,0,0.00
2013-8-19,-200.0,0.0,200.0,-99.9,-99.9,-99.9,0,0,100,29.35,29.23,0,-999,0,0.00
2013-8-20,-200.0,0.0,200.0,-99.9,-99.9,-99.9,0,0,100,29.32,29.23,0,-999,0,0.00
2013-8-21,-200.0,0.0,200.0,-99.9,-99.9,-99.9,0,0,100,29.32,29.26,0,-999,0,0.00
2013-8-22,-200.0,0.0,200.0,-99.9,-99.9,-99.9,0,0,100,29.32,29.23,0,-999,0,0.00
2013-8-23,-200.0,0.0,200.0,-99.9,-99.9,-99.9,0,0,100,29.32,29.21,0,-999,0,0.00
2013-8-24,87.1,12.8,78.8,63.0,-74.7,-99.9,58,8,40,29.35,29.26,6,-842,10,0.00
2013-8-25,105.2,85.0,72.1,68.7,60.2,-99.9,79,48,17,29.92,29.32,10,3,18,3.29
2013-8-26,103.4,84.8,71.1,67.8,60.2,49.2,79,48,17,29.44,29.32,9,3,15,0.00
2013-8-27,100.4,81.9,68.4,64.2,58.8,54.4,72,49,24,29.35,29.26,9,3,15,0.00
2013-8-28,100.8,84.2,71.1,66.4,60.7,53.5,81,50,21,29.32,29.23,11,3,17,0.00
2013-8-29,106.4,87.1,73.9,66.8,58.9,46.1,75,44,14,29.29,29.21,10,2,16,0.00
2013-8-30,108.8,88.2,74.3,64.4,57.1,46.2,68,40,14,29.23,29.09,9,3,15,0.00
2013-8-31,109.0,89.2,74.7,64.6,57.2,47.8,60,38,14,29.15,29.03,8,3,13,0.00
2013-9-1,98.3,84.7,73.3,65.7,57.6,-99.9,62,42,26,29.15,29.03,11,4,16,0.00
2013-9-2,99.3,82.6,69.4,66.4,51.7,37.0,72,39,10,29.29,29.15,11,4,15,0.00
2013-9-3,102.2,78.9,61.5,60.4,47.9,25.5,77,42,7,29.32,29.21,9,2,12,0.00
2013-9-4,105.5,80.1,61.9,59.0,51.0,32.8,72,43,9,29.38,29.26,9,2,11,0.00
2013-9-5,105.3,81.8,64.8,58.1,51.0,34.6,72,41,9,29.41,29.29,7,2,10,0.00
2013-9-6,106.5,83.1,67.5,56.9,50.8,34.2,64,38,9,29.35,29.21,8,3,11,0.00
2013-9-7,108.8,85.6,69.3,58.1,49.9,25.5,62,36,6,29.29,29.15,8,3,12,0.00
2013-9-8,106.5,86.8,72.7,58.7,51.6,34.1,57,35,9,29.23,29.12,10,3,19,0.00
2013-9-9,103.2,84.9,69.6,57.1,48.9,32.9,55,33,9,29.23,29.15,11,4,18,0.00
2013-9-10,101.2,82.2,70.9,55.6,50.4,32.3,55,37,10,29.32,29.21,10,3,17,0.00
2013-9-11,106.1,83.8,66.9,59.2,49.9,25.7,70,38,6,29.35,29.23,8,2,12,0.00
2013-9-12,99.0,80.6,70.0,65.9,58.1,44.9,79,51,18,29.35,29.23,19,3,25,0.00
2013-9-13,92.2,79.0,70.7,62.8,48.5,34.4,71,39,14,29.32,29.18,9,5,15,0.00
2013-9-14,95.1,76.1,62.1,48.8,44.8,39.9,58,35,17,29.29,29.18,10,4,16,0.00
2013-9-15,96.6,77.8,63.8,57.6,47.9,-99.9,58,37,19,29.26,29.21,11,3,15,0.00
2013-9-16,96.1,79.6,72.9,62.7,57.0,47.6,70,48,20,29.41,29.23,11,4,14,0.00
2013-9-17,95.2,76.2,69.1,66.0,60.8,52.6,81,62,27,29.35,29.21,12,3,20,0.00
2013-9-18,101.9,81.7,70.7,66.6,60.3,51.3,80,53,19,29.26,29.12,10,4,17,0.00
2013-9-19,93.3,78.4,70.7,67.1,61.2,53.9,77,57,29,29.23,29.09,14,4,22,0.79
2013-9-20,74.3,69.7,60.3,67.3,56.6,43.4,90,66,35,29.26,29.18,12,4,17,0.33
2013-9-21,94.0,68.4,52.9,54.1,44.4,25.5,89,51,9,29.26,29.15,8,2,12,0.00
2013-9-22,91.6,66.8,49.5,53.2,39.8,-99.9,81,47,7,29.21,29.09,9,2,14,0.00
2013-9-23,91.3,68.8,51.8,50.9,43.5,32.3,77,46,12,29.18,29.03,10,3,16,0.00
2013-9-24,90.7,71.7,60.5,49.5,43.8,36.1,64,40,15,29.15,29.09,14,5,20,0.00
2013-9-25,99.3,71.8,54.5,54.9,46.2,31.3,80,47,10,29.18,29.03,7,2,10,0.00
2013-9-26,102.3,77.3,61.6,54.6,45.6,-99.9,71,40,7,29.15,29.03,11,5,17,0.00
2013-9-27,98.0,78.3,64.2,56.7,48.0,31.3,71,40,8,29.21,29.09,13,5,25,0.00
2013-9-28,78.9,68.8,56.5,65.8,54.7,49.8,88,62,43,29.32,29.09,13,5,20,0.00
2013-9-29,90.8,63.9,50.5,59.7,44.7,-99.9,96,60,11,29.35,29.18,9,2,13,0.00
2013-9-30,94.5,67.6,48.9,55.4,45.2,-99.9,84,52,14,29.21,29.06,9,2,14,0.00
2013-10-1,98.0,75.3,60.3,69.5,55.5,44.1,92,57,17,29.21,29.12,9,3,15,0.00
2013-10-2,95.0,78.1,67.5,69.5,61.3,53.5,93,61,27,29.26,29.12,10,4,18,0.00
2013-10-3,96.1,79.0,69.4,66.3,61.0,52.9,87,58,26,29.18,29.03,12,6,23,0.00
2013-10-4,95.6,79.6,72.3,66.2,58.9,-99.9,80,53,24,29.15,29.06,13,6,25,0.00
2013-10-5,77.0,60.2,50.0,62.4,38.4,19.6,84,49,13,29.35,29.12,19,6,25,0.00
2013-10-6,76.5,56.8,45.5,37.0,30.2,-99.9,64,40,15,29.29,29.23,15,5,22,0.00
2013-10-7,89.8,60.1,43.7,39.1,29.6,8.7,67,41,5,29.41,29.29,6,2,14,0.00
2013-10-8,85.0,61.7,44.8,46.4,38.4,31.9,79,47,16,29.38,29.26,10,3,15,0.00
2013-10-9,89.8,64.8,48.6,48.3,42.2,36.9,80,48,18,29.32,29.23,9,3,15,0.00
2013-10-10,88.5,66.8,54.0,53.1,43.9,-99.9,83,50,20,29.29,29.12,11,-24,17,0.00
2013-10-11,89.1,59.4,60.4,60.7,27.7,-99.9,81,47,30,29.12,29.06,15,-465,20,0.00
2013-10-12,84.3,41.9,59.7,62.2,-17.4,-99.9,75,20,20,29.38,29.09,10,6,20,0.00
2013-10-13,78.1,68.6,63.7,53.1,44.4,-99.9,55,43,38,29.53,29.38,9,4,12,0.00
2013-10-14,67.9,63.6,59.5,64.0,54.4,-99.9,97,75,48,29.41,29.15,12,6,17,0.00
2013-10-15,68.4,21.6,55.4,66.7,-47.5,-99.9,94,26,39,29.32,29.12,16,6,22,0.00
2013-10-16,64.7,6.7,45.3,39.4,-83.7,-99.9,70,5,30,29.38,29.29,13,5,19,0.00
2013-10-17,81.1,21.5,41.4,42.1,-49.2,-99.9,86,18,15,29.32,29.21,8,2,15,0.00
2013-10-18,58.9,48.8,41.4,43.7,37.7,-99.9,87,67,46,29.38,29.23,12,5,17,0.00
2013-10-19,74.5,46.2,33.3,35.0,21.6,-99.9,89,51,11,29.38,29.23,10,4,14,0.00
2013-10-20,78.3,41.4,43.3,35.2,-5.4,-99.9,67,31,10,29.23,29.06,13,4,22,0.00
2013-10-21,65.7,12.4,40.5,44.2,-69.4,-99.9,77,12,25,29.35,29.18,10,3,18,0.00
2013-10-22,80.1,7.1,37.2,33.7,-85.3,-99.9,77,4,12,29.35,29.21,14,4,20,0.00
2013-10-23,79.3,19.3,43.8,38.2,-56.7,-99.9,63,14,15,29.41,29.23,9,2,13,3.03
2013-10-24,69.3,47.6,43.1,40.4,19.6,-99.9,79,43,17,29.62,29.32,12,4,17,0.00
2013-10-25,66.5,44.7,35.1,32.2,16.3,-99.9,66,40,23,29.68,29.44,11,3,15,0.00
2013-10-26,73.7,55.7,46.8,51.8,41.6,31.3,83,60,36,29.44,29.32,9,-11,14,0.00
2013-10-27,83.9,56.2,39.2,50.4,28.8,-99.9,86,44,6,29.35,29.23,7,2,11,0.00
2013-10-28,74.4,62.8,50.4,55.3,49.9,39.5,96,66,35,29.35,29.23,11,5,15,0.00
2013-10-29,78.3,69.9,61.7,62.2,59.2,54.6,84,69,49,29.32,29.18,14,6,22,0.00
2013-10-30,72.0,67.9,64.6,66.0,61.5,58.1,97,80,70,29.23,29.00,13,6,25,1.20
2013-10-31,72.0,63.7,51.8,64.1,48.2,31.7,96,62,23,29.06,28.82,22,6,29,0.29
2013-11-1,75.0,57.8,43.5,38.7,31.8,19.9,73,42,13,29.29,29.03,16,5,20,0.00
2013-11-2,73.9,52.2,39.7,32.9,25.0,10.4,64,39,11,29.50,29.29,16,5,24,0.00
2013-11-3,66.3,50.6,36.1,36.2,28.8,24.4,74,46,24,29.44,29.21,14,5,22,0.00
2013-11-4,68.4,59.0,52.0,51.3,43.0,32.0,76,57,38,29.32,29.18,13,7,22,0.00
2013-11-5,65.1,60.1,56.5,63.4,57.8,-99.9,98,93,76,29.32,29.15,13,6,19,0.00
2013-11-6,64.8,45.8,35.2,56.7,27.8,-99.9,86,57,25,29.59,29.21,16,7,28,0.00
2013-11-7,77.8,36.9,31.1,41.5,-1.4,-99.9,92,42,8,29.68,29.56,8,1,10,0.00
2013-11-8,68.0,24.5,38.8,32.8,-33.6,-99.9,68,26,15,29.56,29.26,16,6,26,0.00
2013-11-9,70.5,34.6,46.9,37.6,-14.1,-99.9,59,31,22,29.47,29.26,9,3,15,0.00
2013-11-10,81.3,48.7,46.0,45.6,18.1,-99.9,77,46,20,29.56,29.47,5,1,9,0.00
2013-11-11,74.8,37.5,44.7,48.5,-2.3,-99.9,71,42,32,29.71,29.38,18,5,30,0.00
2013-11-12,51.4,35.8,24.3,30.1,10.4,-99.9,57,37,14,30.00,29.71,16,8,24,0.00
2013-11-13,61.6,28.2,19.8,19.7,-5.0,-99.9,67,37,11,29.88,29.53,10,3,15,0.00
2013-11-14,63.7,16.7,30.2,21.4,-49.0,-99.9,53,18,11,29.53,29.26,13,5,20,0.00
2013-11-15,-200.0,0.0,200.0,-99.9,-99.9,-99.9,0,0,100,29.26,29.06,13,2,18,0.00
2013-11-16,-200.0,0.0,200.0,-99.9,-99.9,-99.9,0,0,100,29.06,28.82,18,10,29,0.00
2013-11-17,-200.0,0.0,200.0,-99.9,-99.9,-99.9,0,0,100,29.35,28.79,16,8,26,0.00
2013-11-18,-200.0,0.0,200.0,-99.9,-99.9,-99.9,0,0,100,29.50,29.35,8,3,12,0.00
2013-11-19,-200.0,0.0,200.0,-99.9,-99.9,-99.9,0,0,100,29.44,29.23,13,6,20,0.00
2013-11-20,-200.0,0.0,200.0,-99.9,-99.9,-99.9,0,0,100,29.23,29.09,16,7,27,0.00
2013-11-21,-200.0,0.0,200.0,-99.9,-99.9,-99.9,0,0,100,29.59,29.18,16,7,23,0.00
2013-11-22,79.1,10.1,32.5,15.5,-64.4,-99.9,49,15,43,29.80,29.59,16,-53,24,0.00
2013-11-23,42.1,34.8,28.0,14.2,3.3,-6.6,46,28,13,29.91,29.77,15,-78,20,0.00
2013-11-24,28.2,28.1,28.0,-6.1,-6.2,-6.3,18,18,18,29.88,29.88,9,6,10,0.00
2013-11-28,69.5,48.8,35.1,10.5,-0.5,-99.9,20,13,7,29.65,29.50,10,-152,13,0.00
2013-11-29,65.8,42.0,23.0,12.9,1.9,-6.5,40,20,8,29.71,29.50,10,3,15,0.00
2013-11-30,68.7,48.3,38.0,23.5,15.2,-0.8,42,28,12,29.53,29.32,12,4,17,0.00
2013-12-1,56.8,48.4,38.7,35.0,27.2,19.2,52,44,37,29.32,29.15,4,1,6,0.00
2013-12-2,67.5,51.7,43.5,31.3,22.9,3.6,49,35,10,29.15,28.91,7,2,9,0.00
2013-12-3,70.9,53.3,44.1,38.9,26.0,7.0,62,40,9,28.91,28.76,8,4,12,0.00
2013-12-4,47.3,41.4,30.7,28.1,12.4,-5.9,51,32,18,29.26,28.76,14,-10,20,0.00
2013-12-5,31.1,25.7,21.7,0.6,-6.2,-10.9,34,21,15,29.50,29.26,15,5,20,0.00
2013-12-6,27.2,20.5,14.5,2.5,-6.4,-17.1,42,27,16,29.80,29.47,13,-344,18,0.00
2013-12-7,24.5,17.4,8.8,-9.0,-15.5,-22.0,20,18,17,29.85,29.50,0,-999,0,0.00
2013-12-8,31.5,27.3,22.3,11.4,4.5,-9.5,43,34,19,29.50,29.23,0,-999,0,0.00
2013-12-9,27.6,24.3,20.3,6.1,-3.0,-10.3,38,26,16,29.65,29.41,10,-903,13,0.00
2013-12-10,48.1,25.5,9.0,-0.7,-6.8,-11.5,37,23,12,29.68,29.47,9,-52,14,0.00
2013-12-11,45.4,28.1,16.5,4.8,-5.7,-12.3,36,21,12,29.83,29.47,11,3,16,0.00
2013-12-12,45.4,29.5,14.0,6.5,-4.4,-9.9,35,22,12,29.83,29.44,11,3,17,0.00
2013-12-13,43.6,37.9,34.9,22.2,9.7,-99.9,49,34,19,29.44,29.06,15,5,23,0.00
2013-12-14,43.3,35.3,23.7,25.1,6.3,-99.9,54,31,13,29.53,29.06,16,6,24,0.00
2013-12-15,67.3,38.1,21.2,10.9,-6.2,-99.9,42,20,7,29.53,29.35,10,3,15,0.00
2013-12-16,77.2,49.1,34.0,11.3,-0.5,-7.5,25,13,7,29.41,29.29,9,4,13,0.00
2013-12-17,72.7,45.5,32.2,10.5,-1.7,-9.0,25,14,7,29.56,29.35,10,2,14,0.00
2013-12-18,74.2,50.2,28.6,10.9,3.8,-4.4,31,16,8,29.50,29.15,16,6,27,0.00
2013-12-19,64.3,59.0,53.7,33.1,21.0,3.6,34,24,12,29.15,28.91,16,9,28,0.00
2013-12-20,61.5,38.6,30.0,34.8,11.2,-99.9,43,30,20,29.23,28.91,18,7,26,0.00
2013-12-21,33.1,31.7,30.4,15.6,13.1,-99.9,49,44,42,29.06,28.76,0,-783,0,0.00
2013-12-23,23.5,21.8,19.8,1.6,0.1,-1.2,35,34,33,29.83,29.80,0,-999,0,0.00
2013-12-24,52.5,29.7,16.0,11.9,2.7,-5.0,44,31,12,29.83,29.41,0,-999,0,0.00
2013-12-25,48.9,19.7,25.2,14.6,-27.8,-99.9,44,25,14,29.65,29.50,7,-621,10,0.00
2013-12-26,60.9,29.0,20.8,18.6,-19.9,-99.9,50,20,9,29.65,29.50,9,-211,11,0.00
2013-12-27,67.5,41.1,29.0,8.9,-4.1,-99.9,31,16,7,29.62,29.53,10,3,15,0.00
2013-12-28,67.2,40.9,33.1,12.7,-10.4,-99.9,30,15,8,29.53,29.15,11,-10,20,0.00
2013-12-29,43.4,22.5,23.2,14.4,-29.9,-99.9,33,14,15,29.56,29.15,17,-32,23,0.00
2013-12-30,53.4,27.4,14.9,-0.3,-10.7,-16.7,19,16,11,29.59,29.47,7,2,11,0.00
2013-12-31,62.2,37.8,20.3,2.6,-5.9,-13.2,22,15,9,29.59,29.35,15,4,26,0.00
2014-1-1,57.6,39.5,20.3,2.8,-4.8,-10.9,27,15,9,29.50,29.12,21,-55,29,0.00
2014-1-2,46.7,24.3,13.6,-3.3,-11.2,-16.6,25,18,12,29.71,29.50,14,-511,15,0.00